Time_in_sec,gx,gy,gz
1314889538.45624900,0.47289365,-0.01982595,-0.88089643
1314889538.51134372,0.47286551,-0.01989408,-0.88091000
1314889538.55536366,0.47241093,-0.02004940,-0.88115035
1314889538.60845041,0.47256963,-0.01996486,-0.88106717
1314889538.65626192,0.47268888,-0.02011392,-0.88099980
1314889538.70732141,0.47273469,-0.02003442,-0.88097703
1314889538.75768018,0.47262680,-0.02003987,-0.88103480
1314889538.80732369,0.47263951,-0.02000988,-0.88102866
1314889538.85626411,0.47263810,-0.01986901,-0.88103261
1314889538.90842080,0.47256250,-0.01986136,-0.88107333
1314889538.95525146,0.47249630,-0.01972727,-0.88111184
1314889539.00855851,0.47251921,-0.01968881,-0.88110042
1314889539.05532312,0.47241158,-0.01969956,-0.88115789
1314889539.10725617,0.47244456,-0.01957590,-0.88114296
1314889539.15526438,0.47236177,-0.01935630,-0.88119220
1314889539.20827317,0.47219860,-0.01940242,-0.88127863
1314889539.25521159,0.47216589,-0.01911132,-0.88130252
1314889539.30823874,0.47374047,-0.01984448,-0.88044089
1314889539.35523605,0.47354784,-0.01998143,-0.88054142
1314889539.40726447,0.47341617,-0.01993829,-0.88061319
1314889539.45530224,0.47331161,-0.01988795,-0.88067054
1314889539.50945115,0.47336498,-0.01982144,-0.88064335
1314889539.55530429,0.47300634,-0.01962588,-0.88084041
1314889539.61125183,0.47300334,-0.01969915,-0.88084038
1314889539.65994549,0.47317860,-0.01979511,-0.88074410
1314889539.70724058,0.47299947,-0.01990259,-0.88083789
1314889539.75621843,0.47277774,-0.01994517,-0.88095596
1314889539.80719519,0.47187811,-0.01962133,-0.88144543
1314889539.85517406,0.47186759,-0.01946010,-0.88145464
1314889539.90614343,0.47188073,-0.01945595,-0.88144770
1314889539.95936656,0.47179594,-0.01951671,-0.88149174
1314889540.00834513,0.47187701,-0.01953906,-0.88144785
1314889540.05527925,0.47117083,-0.01927100,-0.88183144
1314889540.10824108,0.47121453,-0.01937725,-0.88180576
1314889540.15633607,0.47088630,-0.01927952,-0.88198321
1314889540.20824361,0.47086131,-0.01907759,-0.88200095
1314889540.25624895,0.47083635,-0.01892953,-0.88201746
1314889540.30732417,0.47104290,-0.01874745,-0.88191106
1314889540.35582781,0.47095170,-0.01883020,-0.88195800
1314889540.40731192,0.47085239,-0.01874496,-0.88201284
1314889540.45608449,0.47090154,-0.01875744,-0.88198634
1314889540.50833893,0.47085647,-0.01891266,-0.88200708
1314889540.55581594,0.47109838,-0.01918122,-0.88187210
1314889540.61135077,0.47127934,-0.01919768,-0.88177505
1314889540.65919375,0.47125314,-0.01894840,-0.88179444
1314889540.70723701,0.47140272,-0.01898294,-0.88171374
1314889540.75632930,0.47140476,-0.01889356,-0.88171457
1314889540.80822945,0.47117383,-0.01878781,-0.88184026
1314889540.85934925,0.47119448,-0.01880441,-0.88182887
1314889540.90725589,0.47123216,-0.01871018,-0.88181074
1314889540.95934582,0.47132770,-0.01875834,-0.88175865
1314889541.00834155,0.47130537,-0.01867820,-0.88177229
1314889541.05633879,0.47148951,-0.01858243,-0.88167587
1314889541.10731077,0.47165563,-0.01874789,-0.88158351
1314889541.15632534,0.47142917,-0.01866666,-0.88170635
1314889541.20827293,0.47133121,-0.01851766,-0.88176187
1314889541.25634384,0.47141443,-0.01866279,-0.88171431
1314889541.30730820,0.47050066,-0.01860635,-0.88220345
1314889541.35935545,0.47065441,-0.01867202,-0.88212005
1314889541.40734315,0.47074920,-0.01849244,-0.88207325
1314889541.45542336,0.47068794,-0.01869405,-0.88210169
1314889541.50834441,0.47077809,-0.01871373,-0.88205317
1314889541.55933881,0.46999954,-0.01851837,-0.88247238
1314889541.60735226,0.47001662,-0.01839482,-0.88246587
1314889541.65620971,0.47012772,-0.01832092,-0.88240822
1314889541.70721054,0.47027194,-0.01848279,-0.88232800
1314889541.75531340,0.47032880,-0.01839710,-0.88229947
1314889541.80727744,0.47052370,-0.01862533,-0.88219076
1314889541.85532355,0.47074074,-0.01843685,-0.88207893
1314889541.90731621,0.47077423,-0.01844522,-0.88206088
1314889541.95532489,0.47078056,-0.01840090,-0.88205843
1314889542.00725365,0.47073864,-0.01841854,-0.88208043
1314889542.05526757,0.47022260,-0.01797998,-0.88236468
1314889542.10822773,0.47014921,-0.01795947,-0.88240420
1314889542.15525937,0.47012371,-0.01804590,-0.88241602
1314889542.20820713,0.46995664,-0.01775356,-0.88251095
1314889542.25525641,0.46988364,-0.01760370,-0.88255282
1314889542.30724859,0.47059095,-0.01808623,-0.88216611
1314889542.35524535,0.47067911,-0.01805991,-0.88211961
1314889542.40726328,0.47065329,-0.01801361,-0.88213434
1314889542.45598984,0.47076266,-0.01772202,-0.88208188
1314889542.50803280,0.47065886,-0.01765908,-0.88213853
1314889542.55614066,0.47006681,-0.01754341,-0.88245647
1314889542.60840845,0.47021598,-0.01740692,-0.88237970
1314889542.65625978,0.47034264,-0.01736646,-0.88231299
1314889542.70823097,0.47026369,-0.01748782,-0.88235267
1314889542.75932956,0.47021566,-0.01743919,-0.88237923
1314889542.80722499,0.47053951,-0.01764532,-0.88220248
1314889542.85531640,0.47040799,-0.01751297,-0.88227525
1314889542.90731001,0.47061335,-0.01752859,-0.88216542
1314889542.95532680,0.47054137,-0.01746300,-0.88220512
1314889543.00720167,0.47031702,-0.01742468,-0.88232550
1314889543.05630445,0.47032073,-0.01753441,-0.88232135
1314889543.10824656,0.47040352,-0.01750427,-0.88227780
1314889543.15596795,0.47040847,-0.01738594,-0.88227750
1314889543.20731115,0.47038422,-0.01739903,-0.88229018
1314889543.25518394,0.47008309,-0.01753686,-0.88244793
1314889543.30823135,0.47027414,-0.01765897,-0.88234369
1314889543.35584950,0.47037173,-0.01740816,-0.88229666
1314889543.40895224,0.47027938,-0.01749044,-0.88234426
1314889543.45634818,0.47011696,-0.01750033,-0.88243061
1314889543.50838852,0.46999465,-0.01734849,-0.88249876
1314889543.55934381,0.46958026,-0.01730032,-0.88272027
1314889543.60834932,0.46953527,-0.01718824,-0.88274640
1314889543.65584135,0.46964165,-0.01748506,-0.88268397
1314889543.70763350,0.46971322,-0.01759288,-0.88264374
1314889543.76032257,0.46980122,-0.01747868,-0.88259918
1314889543.80832338,0.46979475,-0.01764198,-0.88259937
1314889543.85570216,0.46975854,-0.01774233,-0.88261664
1314889543.90731645,0.46967479,-0.01798629,-0.88265627
1314889543.95571375,0.46951712,-0.01781363,-0.88274365
1314889544.00821042,0.46926851,-0.01797552,-0.88287255
1314889544.06022048,0.46923595,-0.01772818,-0.88289486
1314889544.10759568,0.46927034,-0.01772861,-0.88287657
1314889544.15557027,0.46911345,-0.01776286,-0.88295926
1314889544.20843387,0.46892560,-0.01774363,-0.88305942
1314889544.25634313,0.46877737,-0.01778663,-0.88313725
1314889544.30794954,0.46897555,-0.01799575,-0.88302779
1314889544.35934114,0.46898280,-0.01799750,-0.88302391
1314889544.40735364,0.46891824,-0.01796743,-0.88305881
1314889544.45634031,0.46863840,-0.01809289,-0.88320479
1314889544.50819898,0.46864886,-0.01820425,-0.88319695
1314889544.55533957,0.46823514,-0.01764692,-0.88342766
1314889544.61123085,0.46850627,-0.01755489,-0.88328574
1314889544.65635228,0.46868472,-0.01775261,-0.88318711
1314889544.70739007,0.46830907,-0.01766817,-0.88338805
1314889544.75917959,0.46825453,-0.01763313,-0.88341766
1314889544.80720234,0.46814255,-0.01790477,-0.88347155
1314889544.86020398,0.46814295,-0.01797612,-0.88346988
1314889544.90731001,0.46792230,-0.01785323,-0.88358926
1314889544.95528412,0.46776779,-0.01784446,-0.88367124
1314889545.00720072,0.46760005,-0.01786015,-0.88375970
1314889545.05528069,0.46738611,-0.01757766,-0.88387853
1314889545.10721564,0.46738473,-0.01753716,-0.88388006
1314889545.15526605,0.46743375,-0.01766270,-0.88385164
1314889545.20728350,0.46727754,-0.01763274,-0.88393483
1314889545.25927424,0.46726447,-0.01760557,-0.88394228
1314889545.30727315,0.46697995,-0.01775534,-0.88408963
1314889545.35526991,0.46693356,-0.01780649,-0.88411310
1314889545.40720654,0.46677093,-0.01789708,-0.88419715
1314889545.45612884,0.46673204,-0.01772092,-0.88422122
1314889545.50718546,0.46685167,-0.01776215,-0.88415724
1314889545.55615926,0.46676778,-0.01792952,-0.88419815
1314889545.60731769,0.46676974,-0.01775621,-0.88420062
1314889545.65520906,0.46686966,-0.01784676,-0.88414604
1314889545.70723486,0.46670705,-0.01778317,-0.88423317
1314889545.75625610,0.46664261,-0.01792327,-0.88426435
1314889545.80731583,0.46695606,-0.01824350,-0.88409231
1314889545.85602093,0.46686686,-0.01846380,-0.88413484
1314889545.90801454,0.46683000,-0.01828092,-0.88415811
1314889545.95600510,0.46676432,-0.01827365,-0.88419293
1314889546.00721598,0.46679361,-0.01834719,-0.88417595
1314889546.05601144,0.46698421,-0.01867655,-0.88406840
1314889546.10730910,0.46696871,-0.01878753,-0.88407423
1314889546.15600348,0.46665036,-0.01862530,-0.88424575
1314889546.20731091,0.46650038,-0.01879083,-0.88432138
1314889546.25599360,0.46644693,-0.01850897,-0.88435552
1314889546.30723143,0.46620865,-0.01874204,-0.88447625
1314889546.35634375,0.46639057,-0.01875262,-0.88438011
1314889546.40731239,0.46642033,-0.01862802,-0.88436705
1314889546.46018910,0.46660328,-0.01880336,-0.88426682
1314889546.50728440,0.46661336,-0.01875974,-0.88426243
1314889546.55585766,0.46669693,-0.01892202,-0.88421487
1314889546.60732627,0.46665700,-0.01900876,-0.88423408
1314889546.65573883,0.46672699,-0.01882187,-0.88420114
1314889546.70730734,0.46654079,-0.01874154,-0.88430111
1314889546.76032329,0.46657754,-0.01889802,-0.88427839
1314889546.80731273,0.46648959,-0.01872045,-0.88432856
1314889546.85933042,0.46636635,-0.01878896,-0.88439211
1314889546.90761590,0.46625639,-0.01852806,-0.88445559
1314889546.95935273,0.46617567,-0.01851601,-0.88449839
1314889547.00732613,0.46624028,-0.01859563,-0.88446266
1314889547.05549669,0.46649691,-0.01870847,-0.88432496
1314889547.10751581,0.46648401,-0.01876364,-0.88433059
1314889547.15633821,0.46646438,-0.01885741,-0.88433895
1314889547.20834231,0.46647023,-0.01892046,-0.88433452
1314889547.25619459,0.46639452,-0.01916469,-0.88436919
1314889547.30734444,0.46614364,-0.01911423,-0.88450254
1314889547.35560036,0.46615833,-0.01906211,-0.88449593
1314889547.40733647,0.46602513,-0.01911554,-0.88456496
1314889547.45537758,0.46599247,-0.01909136,-0.88458269
1314889547.50924754,0.46609013,-0.01891345,-0.88453506
1314889547.55532384,0.46632611,-0.01890657,-0.88441082
1314889547.60834432,0.46630111,-0.01887294,-0.88442472
1314889547.65536857,0.46639261,-0.01886617,-0.88437662
1314889547.70834184,0.46635126,-0.01888935,-0.88439793
1314889547.75534463,0.46618825,-0.01904914,-0.88448044
1314889547.80732751,0.46627176,-0.01893185,-0.88443893
1314889547.85931778,0.46652121,-0.01895678,-0.88430685
1314889547.90731120,0.46652427,-0.01898222,-0.88430469
1314889547.95621991,0.46656022,-0.01895137,-0.88428639
1314889548.01122499,0.46650122,-0.01890459,-0.88431851
1314889548.05518389,0.46677532,-0.01913769,-0.88416885
1314889548.10822296,0.46665654,-0.01918325,-0.88423056
1314889548.15623784,0.46677884,-0.01924324,-0.88416470
1314889548.20827150,0.46663492,-0.01892468,-0.88424754
1314889548.25521064,0.46660361,-0.01901768,-0.88426207
1314889548.30735421,0.46662573,-0.01894788,-0.88425189
1314889548.35531640,0.46653782,-0.01891288,-0.88429903
1314889548.40735340,0.46669097,-0.01905394,-0.88421518
1314889548.45523763,0.46665416,-0.01897445,-0.88423632
1314889548.50806189,0.46665222,-0.01893204,-0.88423825
1314889548.55524659,0.46664163,-0.01880449,-0.88424656
1314889548.60834503,0.46655908,-0.01879501,-0.88429032
1314889548.65603995,0.46673271,-0.01870082,-0.88420069
1314889548.70874143,0.46667564,-0.01842229,-0.88423666
1314889548.75525641,0.46663693,-0.01828746,-0.88425988
1314889548.80796337,0.46668232,-0.01851748,-0.88423114
1314889548.85520506,0.46684647,-0.01823763,-0.88415031
1314889548.90825653,0.46688648,-0.01832868,-0.88412730
1314889548.95634532,0.46687396,-0.01845102,-0.88413136
1314889549.00743127,0.46689619,-0.01819958,-0.88412483
1314889549.05526710,0.46731595,-0.01816336,-0.88390378
1314889549.10826325,0.46722008,-0.01804422,-0.88395690
1314889549.15521502,0.46705616,-0.01812903,-0.88404179
1314889549.20790315,0.46703613,-0.01810454,-0.88405287
1314889549.25925565,0.46731257,-0.01803813,-0.88390813
1314889549.30721068,0.46730302,-0.01781712,-0.88391766
1314889549.35635114,0.46726377,-0.01764536,-0.88394186
1314889549.40727615,0.46692920,-0.01755714,-0.88412039
1314889549.46033835,0.46673019,-0.01748836,-0.88422683
1314889549.50578356,0.46676901,-0.01727380,-0.88421055
1314889549.56024528,0.46723649,-0.01739601,-0.88396122
1314889549.61138296,0.46718638,-0.01745013,-0.88398664
1314889549.65626740,0.46710622,-0.01746785,-0.88402865
1314889549.70776606,0.46726170,-0.01734381,-0.88394892
1314889549.76018023,0.46721675,-0.01718899,-0.88397571
1314889549.80825496,0.46696905,-0.01696278,-0.88411095
1314889549.85923886,0.46715002,-0.01702760,-0.88401409
1314889549.90627027,0.46733981,-0.01681273,-0.88391789
1314889549.95936918,0.46738692,-0.01645912,-0.88389963
1314889550.00825477,0.46720095,-0.01651768,-0.88399685
1314889550.06026936,0.46707514,-0.01640772,-0.88406538
1314889550.10722971,0.46719004,-0.01631135,-0.88400645
1314889550.15958524,0.46730084,-0.01644954,-0.88394533
1314889550.20823884,0.46739188,-0.01644903,-0.88389720
1314889550.25561881,0.46752504,-0.01646603,-0.88382646
1314889550.30825305,0.46758949,-0.01641814,-0.88379325
1314889550.35633540,0.46756288,-0.01641725,-0.88380735
1314889550.40727568,0.46753403,-0.01625010,-0.88382570
1314889550.45940757,0.46752798,-0.01607401,-0.88383212
1314889550.50728202,0.46751204,-0.01600960,-0.88384172
1314889550.55541420,0.46807958,-0.01622174,-0.88353741
1314889550.60852885,0.46816174,-0.01636619,-0.88349122
1314889550.66037226,0.46803086,-0.01636891,-0.88356051
1314889550.70756269,0.46807022,-0.01642046,-0.88353870
1314889550.75520325,0.46806390,-0.01649749,-0.88354061
1314889550.80733824,0.46862389,-0.01687844,-0.88323653
1314889550.85525870,0.46874527,-0.01698821,-0.88317001
1314889550.90721059,0.46867829,-0.01683449,-0.88320850
1314889550.95531392,0.46860765,-0.01696110,-0.88324356
1314889551.00727057,0.46860423,-0.01683036,-0.88324788
1314889551.05632830,0.46861703,-0.01710286,-0.88323585
1314889551.10829091,0.46852086,-0.01724347,-0.88328414
1314889551.15624905,0.46850765,-0.01713345,-0.88329328
1314889551.20796847,0.46837948,-0.01709699,-0.88336196
1314889551.25608516,0.46852690,-0.01731315,-0.88327957
1314889551.30719948,0.46869918,-0.01742888,-0.88318589
1314889551.35607982,0.46865130,-0.01727810,-0.88321426
1314889551.40732741,0.46874733,-0.01746034,-0.88315971
1314889551.45524740,0.46866328,-0.01730066,-0.88320746
1314889551.50730419,0.46853037,-0.01717076,-0.88328051
1314889551.55524731,0.46817511,-0.01693032,-0.88347350
1314889551.60826564,0.46826429,-0.01698976,-0.88342510
1314889551.65519428,0.46812416,-0.01686308,-0.88350179
1314889551.70504761,0.46800866,-0.01675715,-0.88356499
1314889551.75593948,0.46808774,-0.01678956,-0.88352248
1314889551.80518222,0.46796116,-0.01634492,-0.88359787
1314889551.85524917,0.46804794,-0.01622976,-0.88355403
1314889551.90736103,0.46791748,-0.01624459,-0.88362285
1314889551.95624566,0.46794194,-0.01617352,-0.88361120
1314889552.00724530,0.46757687,-0.01610858,-0.88380563
1314889552.05520797,0.46788268,-0.01637755,-0.88363883
1314889552.10787964,0.46798811,-0.01635110,-0.88358348
1314889552.15590787,0.46789565,-0.01621610,-0.88363493
1314889552.20490813,0.46784369,-0.01606598,-0.88366519
1314889552.25923276,0.46773402,-0.01587954,-0.88372662
1314889552.30736923,0.46777212,-0.01617097,-0.88370116
1314889552.36035204,0.46767877,-0.01606349,-0.88375253
1314889552.40736651,0.46788105,-0.01590631,-0.88364830
1314889552.45942354,0.46773695,-0.01590611,-0.88372458
1314889552.50813937,0.46786225,-0.01599151,-0.88365671
1314889552.55967093,0.46763885,-0.01606222,-0.88377368
1314889552.60831928,0.46738785,-0.01602457,-0.88390713
1314889552.66032577,0.46727099,-0.01617889,-0.88396610
1314889552.70841217,0.46718038,-0.01636352,-0.88401059
1314889552.76024890,0.46682881,-0.01639767,-0.88419567
1314889552.80727983,0.46719943,-0.01686469,-0.88399111
1314889552.85934138,0.46703935,-0.01648045,-0.88408294
1314889552.90778971,0.46685671,-0.01637676,-0.88418133
1314889552.95565462,0.46699511,-0.01641078,-0.88410760
1314889553.00756502,0.46696194,-0.01651377,-0.88412321
1314889553.05633116,0.46719328,-0.01643828,-0.88400239
1314889553.10731912,0.46704458,-0.01653368,-0.88407918
1314889553.15552735,0.46702919,-0.01651949,-0.88408758
1314889553.20833826,0.46710672,-0.01652908,-0.88404643
1314889553.25636172,0.46708551,-0.01640544,-0.88405995
1314889553.30834627,0.46703185,-0.01619704,-0.88409213
1314889553.35622001,0.46723232,-0.01589553,-0.88399168
1314889553.40722799,0.46735551,-0.01608217,-0.88392318
1314889553.45633340,0.46724162,-0.01596721,-0.88398547
1314889553.50724387,0.46727710,-0.01582005,-0.88396937
1314889553.55547976,0.46700027,-0.01559345,-0.88411967
1314889553.61068964,0.46701153,-0.01532363,-0.88411844
1314889553.65551329,0.46713310,-0.01531930,-0.88405429
1314889553.70826244,0.46697678,-0.01482281,-0.88414533
1314889553.75525045,0.46694008,-0.01476257,-0.88416572
1314889553.80827641,0.46708412,-0.01490082,-0.88408732
1314889553.85521531,0.46713078,-0.01478699,-0.88406458
1314889553.90725183,0.46721059,-0.01487394,-0.88402094
1314889553.95531368,0.46723641,-0.01478026,-0.88400887
1314889554.00826764,0.46735059,-0.01498599,-0.88394505
1314889554.05524445,0.46808049,-0.01534242,-0.88355264
1314889554.11124992,0.46817082,-0.01539069,-0.88350394
1314889554.15525341,0.46829481,-0.01532411,-0.88343938
1314889554.20727372,0.46837638,-0.01499845,-0.88340173
1314889554.25538301,0.46831469,-0.01486106,-0.88343676
1314889554.30726886,0.46918630,-0.01503471,-0.88297122
1314889554.35620880,0.46921837,-0.01472435,-0.88295940
1314889554.40826154,0.46936249,-0.01458389,-0.88288514
1314889554.45520687,0.46932819,-0.01422727,-0.88290919
1314889554.50732183,0.46910224,-0.01426405,-0.88302867
1314889554.55659342,0.47007643,-0.01485588,-0.88250068
1314889554.60822272,0.47007763,-0.01483138,-0.88250046
1314889554.65520620,0.47002811,-0.01473047,-0.88252852
1314889554.70832705,0.46996757,-0.01451403,-0.88256435
1314889554.75549769,0.46982457,-0.01440800,-0.88264222
1314889554.80720186,0.47059981,-0.01481487,-0.88222238
1314889554.85576510,0.47060993,-0.01460612,-0.88222047
1314889554.90734291,0.47068253,-0.01448436,-0.88218375
1314889554.95531917,0.47075594,-0.01459127,-0.88214281
1314889555.00721717,0.47058409,-0.01479175,-0.88223116
1314889555.05624056,0.47133184,-0.01515892,-0.88182567
1314889555.10832787,0.47123864,-0.01521787,-0.88187446
1314889555.15624213,0.47125593,-0.01503336,-0.88186838
1314889555.20821857,0.47151470,-0.01518689,-0.88172742
1314889555.26034427,0.47139557,-0.01494626,-0.88179523
1314889555.30833888,0.47197604,-0.01544654,-0.88147605
1314889555.36022949,0.47185567,-0.01564380,-0.88153701
1314889555.40731025,0.47172412,-0.01535634,-0.88161246
1314889555.45931387,0.47196501,-0.01530188,-0.88148447
1314889555.50833678,0.47180316,-0.01517291,-0.88157334
1314889555.56033921,0.47207195,-0.01537706,-0.88142590
1314889555.60839653,0.47196391,-0.01514847,-0.88148771
1314889555.65931773,0.47208191,-0.01523016,-0.88142312
1314889555.70734143,0.47203776,-0.01518587,-0.88144753
1314889555.75919318,0.47198232,-0.01500793,-0.88148026
1314889555.80833483,0.47239151,-0.01552353,-0.88125211
1314889555.85634041,0.47232607,-0.01557644,-0.88128625
1314889555.90741777,0.47251488,-0.01584082,-0.88118032
1314889555.95634937,0.47255158,-0.01590726,-0.88115944
1314889556.00740099,0.47253488,-0.01581737,-0.88117001
1314889556.05920506,0.47295168,-0.01577340,-0.88094716
1314889556.10734034,0.47299788,-0.01583437,-0.88092127
1314889556.15632796,0.47290613,-0.01589523,-0.88096943
1314889556.20820332,0.47299768,-0.01585745,-0.88092096
1314889556.25942183,0.47305699,-0.01598016,-0.88088689
1314889556.30820942,0.47394622,-0.01656303,-0.88039800
